User: anonymous   Login
Location: Kerberlivit
(48.2787°N, 4.5413°W)
Time: 06:32:17
(UTC+00:00)
Language:

Cosmos 1666 Rocket - Orbit

View from above orbital plane
View from above orbital plane
View from above satellite
View from above satellite

Ground track
Ground track

The orbit data is extracted from the following two-line orbital elements,

1 15890U 85058B   20152.26373936 +.00000082 +00000-0 +70296-5 0  9997
2 15890 082.5250 330.7832 0019322 262.4710 270.6244 14.83433953863715
Epoch (UTC): 31 May 2020 06:19:47
Eccentricity: 0.0019322
inclination: 82.5250°
perigee height: 605 km
apogee height: 632 km
right ascension of ascending node: 330.7832°
argument of perigee: 262.4710°
revolutions per day: 14.83433953
mean anomaly at epoch: 270.6244°
orbit number at epoch: 86371

The dashed part of the orbit path shows where the satellite is in the earth's shadow,  

DLR